This is the latest recevied weather packets stored in our database for station/object WX9WTF. If no packets are shown the sender has not sent any weather packets the latest 10 day(s).
| Time | Temp. | Humidity | Pressure | Rain* | Wind** | Luminosity | Snow |
|---|---|---|---|---|---|---|---|
| 1778090030 | 12.78° C | 40% | 1020 hPa | 0 mm | - | 389 W/m² | - |
| 1778089727 | 12.78° C | 38% | 1020.2 hPa | 0 mm | - | 374 W/m² | - |
| 1778089425 | 12.78° C | 41% | 1020.3 hPa | 0 mm | - | 348 W/m² | - |
| 1778089122 | 12.78° C | 40% | 1020.1 hPa | 0 mm | - | 316 W/m² | - |
| 1778088819 | 12.78° C | 42% | 1020.2 hPa | 0 mm | - | 311 W/m² | - |
| 1778088516 | 13.33° C | 41% | 1020.3 hPa | 0 mm | - | 331 W/m² | - |
| 1778088212 | 13.33° C | 45% | 1020.4 hPa | 0 mm | - | 353 W/m² | - |
| 1778087910 | 13.33° C | 42% | 1020.1 hPa | 0 mm | - | 449 W/m² | - |
| 1778087607 | 12.78° C | 39% | 1020.2 hPa | 0 mm | - | 672 W/m² | - |
| 1778087305 | 13.33° C | 42% | 1020 hPa | 0 mm | - | 601 W/m² | - |
| 1778087000 | 13.33° C | 42% | 1020.1 hPa | 0 mm | - | 602 W/m² | - |
| 1778086700 | 12.78° C | 39% | 1020 hPa | 0 mm | - | 507 W/m² | - |
| 1778086397 | 13.33° C | 40% | 1020.1 hPa | 0 mm | - | 520 W/m² | - |
| 1778086088 | 13.33° C | 41% | 1019.9 hPa | 0 mm | - | 611 W/m² | - |
| 1778085784 | 13.33° C | 41% | 1020 hPa | 0 mm | - | 563 W/m² | - |
| 1778085481 | 13.89° C | 46% | 1020.1 hPa | 0 mm | - | 515 W/m² | - |
| 1778085176 | 13.33° C | 43% | 1019.9 hPa | 0 mm | - | 553 W/m² | - |
| 1778084872 | 13.89° C | 45% | 1019.8 hPa | 0 mm | - | 618 W/m² | - |
| 1778084570 | 13.89° C | 39% | 1019.7 hPa | 0 mm | - | 610 W/m² | - |
| 1778084267 | 14.44° C | 45% | 1019.7 hPa | 0 mm | - | 644 W/m² | - |
| 1778083964 | 13.89° C | 51% | 1019.6 hPa | 0 mm | - | 718 W/m² | - |
| 1778083662 | 13.33° C | 44% | 1019.6 hPa | 0 mm | - | 655 W/m² | - |
| 1778083358 | 13.89° C | 44% | 1019.5 hPa | 0 mm | - | 637 W/m² | - |
| 1778083057 | 13.33° C | 43% | 1019.6 hPa | 0 mm | - | 812 W/m² | - |
| 1778082754 | 13.33° C | 46% | 1019.4 hPa | 0 mm | - | 764 W/m² | - |
* Rain latest hour (hover to see other rain measurements)
** Current wind speed in m/s (hover to see current wind gust speed)